Location: New Canada
(47.1017°N, 68.5042°W)
Time: 07:46:17
(UTC+00:00)

EO-79 - Pass Details

Date: 04 April 2023
Orbit: 578 x 593 km, 98.0° (Epoch: 03 June)

Event Time Altitude Azimuth Distance (km) Brightness Sun altitude
Rises 07:48:58 0° 2° (N) 2,828 ? -22.4°
Reaches altitude 10° 07:51:26 10° 349° (N) 1,919 ? -22.1°
Enters shadow 07:54:02 23° 312° (NW) 1,267 ? -21.7°
